CHX29 EDDH-ZZZZ

Flight info

Callsign CHX29
Flight time N/A
Altitude
Route
Aircraft EC35

Departure

Time 2026-04-24 18:55
Airport Hamburg Helmut Schmidt Airport (EDDH)

Arrival

Time N/A
Airport ZZZZ
Time Latitude Longitude Altitude Speed Heading
2026-04-24 18:54 53.59046 9.96344 569 ft 107 kts 86°
2026-04-24 18:55 53.59122 9.99041 819 ft 128 kts 85°
2026-04-24 18:55 53.59279 10.00571 780 ft 135 kts 78°
2026-04-24 18:55 53.59418 10.02151 726 ft 139 kts 81°
2026-04-24 18:56 53.59469 10.03764 639 ft 144 kts 84°
2026-04-24 18:56 53.59520 10.05322 752 ft 104 kts 95°
2026-04-24 18:56 53.59590 10.06701 485 ft 111 kts 77°
2026-04-24 18:56 53.59674 10.07631 402 ft 43 kts 67°
2026-04-24 18:57 53.59687 10.07768 312 ft 9 kts 63°
2026-04-24 18:57 53.59691 10.07781 187 ft 0 kts 71°
2026-04-24 18:57 53.59689 10.07785 69 ft 1 kts 75°
2026-04-24 18:57 53.59689 10.07786 68 ft 0 kts 65°
2026-04-24 18:59 53.59690 10.07785 109 ft 0 kts 57°
2026-04-24 18:59 53.59694 10.07785 250 ft 6 kts 57°
2026-04-24 18:59 53.59905 10.07349 351 ft 81 kts 301°
2026-04-24 19:00 53.60274 10.06464 608 ft 109 kts 303°
2026-04-24 19:00 53.60635 10.05198 636 ft 128 kts 289°
2026-04-24 19:00 53.60968 10.03789 720 ft 114 kts 292°
2026-04-24 19:00 53.61305 10.02556 674 ft 114 kts 295°
2026-04-24 19:01 53.61734 10.01587 586 ft 95 kts 304°
2026-04-24 19:01 53.62219 10.00921 414 ft 87 kts 321°
2026-04-24 19:01 53.62637 10.00395 232 ft 42 kts 249°
2026-04-24 19:01 53.62698 10.00132 147 ft 5 kts 247°
2026-04-24 19:02 53.62693 10.00126 58 ft 3 kts 251°
2026-04-24 19:02 53.62695 10.00132 46 ft 0 kts 249°